DW7251 Weather Reports


time (UTC)temp
F
wind
direction
speed
knots
gust
knots
rain 1hr
in
rain 24hr
in
rain mn
in
humidity
%
barometer
mb
20260510022322 61 198 0.0 1.7 0.00 0.00 0.00 72 1030.1
20260510021819 61 271 0.0 1.7 0.00 0.00 0.00 72 1030.1
20260510021309 61 137 0.0 0.9 0.00 0.00 0.00 73 1030.2
20260510020819 61 317 0.0 0.0 0.00 0.00 0.00 73 1030.3
20260510020307 61 115 0.0 2.6 0.00 0.00 0.00 73 1030.3
20260510015804 61 142 0.0 2.6 0.00 0.00 0.00 74 1030.4
20260510015244 61 129 0.0 2.6 0.00 0.00 0.00 75 1030.5
20260510014745 61 204 0.9 3.5 0.00 0.00 0.00 74 1030.5
20260510014242 60 231 0.9 3.5 0.00 0.00 0.00 74 1030.6
20260510013746 60 161 0.9 3.5 0.00 0.00 0.00 74 1030.7
20260510013251 61 140 0.0 3.5 0.00 0.00 0.00 75 1030.7
20260510011426 60 147 0.0 3.5 0.00 0.00 0.00 75 1030.8
20260510010923 60 222 0.0 2.6 0.00 0.00 0.00 76 1030.7
20260510010407 60 256 0.0 2.6 0.00 0.00 0.00 76 1030.7
20260510005218 60 150 0.0 2.6 0.00 0.00 0.00 77 1030.6
20260510002759 60 189 0.0 0.9 0.00 0.00 0.00 80 1030.7
20260510002306 60 278 0.0 0.0 0.00 0.00 0.00 80 1030.8
20260510001808 60 269 0.0 2.6 0.00 0.00 0.00 80 1030.7
20260510001253 61 281 0.0 2.6 0.00 0.00 0.00 79 1030.6
20260510000744 61 270 0.0 2.6 0.00 0.00 0.00 79 1030.7
20260510000226 61 303 0.0 2.6 0.00 0.00 0.00 79 1030.6
20260509235707 61 312 0.0 0.0 0.00 0.00 0.00 78 1030.6
20260509235159 61 268 0.0 0.0 0.00 0.00 0.00 78 1030.6
20260509234653 61 268 0.0 0.0 0.00 0.00 0.00 77 1030.6
20260509234201 61 268 0.0 0.0 0.00 0.00 0.00 77 1030.6
20260509233705 60 224 0.0 0.0 0.00 0.00 0.00 76 1030.6
20260509233158 60 212 0.0 0.0 0.00 0.00 0.00 76 1030.6
20260509232647 60 212 0.0 0.0 0.00 0.00 0.00 75 1030.6
20260509232131 60 212 0.0 0.0 0.00 0.00 0.00 75 1030.5
20260509231640 60 212 0.0 0.0 0.00 0.00 0.00 76 1030.5
20260509231135 60 212 0.0 0.0 0.00 0.00 0.00 76 1030.5
20260509230624 59 212 0.0 0.0 0.00 0.00 0.00 76 1030.5
20260509230110 59 212 0.0 0.0 0.00 0.00 0.00 76 1030.5
20260509225607 59 212 0.0 0.0 0.00 0.00 0.00 75 1030.5
20260509225059 59 212 0.0 0.0 0.00 0.00 0.00 76 1030.4
20260509224541 59 212 0.0 3.5 0.00 0.00 0.00 75 1030.5
20260509224022 58 127 0.0 3.5 0.00 0.00 0.00 76 1030.4
20260509223514 58 114 0.0 0.9 0.00 0.00 0.00 77 1030.4
20260509222955 58 209 0.0 0.9 0.00 0.00 0.00 78 1030.3
20260509221753 57 273 0.0 0.0 0.00 0.00 0.00 80 1030.2
20260509221250 57 273 0.0 0.0 0.00 0.00 0.00 81 1030.1
20260509220741 57 273 0.0 0.0 0.00 0.01 0.00 82 1030.1
20260509215609 57 33 0.0 0.0 0.00 0.01 0.00 84 1029.9
20260509215100 57 32 0.0 0.0 0.00 0.01 0.00 85 1029.8
20260509214609 57 32 0.0 0.0 0.00 0.01 0.00 85 1029.8
20260509214101 57 32 0.0 0.0 0.00 0.01 0.00 85 1029.7
20260509213542 56 32 0.0 0.0 0.00 0.01 0.00 85 1029.6
20260509213044 57 17 0.0 0.9 0.00 0.01 0.00 85 1029.6
20260509212537 57 48 0.0 0.0 0.00 0.01 0.00 85 1029.6
20260509212044 57 61 0.0 0.0 0.00 0.01 0.00 85 1029.5
20260509211543 57 61 0.0 0.0 0.00 0.01 0.00 85 1029.5
20260509211040 57 61 0.0 0.0 0.00 0.01 0.00 85 1029.4
20260509210544 57 61 0.0 0.0 0.00 0.01 0.00 85 1029.3
20260509210036 57 61 0.0 0.0 0.00 0.01 0.00 85 1029.3
20260509205545 57 61 0.0 0.0 0.00 0.01 0.00 85 1029.2
20260509204417 57 46 0.0 0.0 0.00 0.01 0.00 84 1029.2
20260509203914 57 46 0.0 0.0 0.00 0.01 0.00 84 1029.1
20260509202119 57 87 0.0 0.0 0.00 0.01 0.00 83 1029.0
20260509201610 57 87 0.0 0.0 0.00 0.01 0.00 83 1028.9
20260509201102 57 87 0.0 0.0 0.00 0.01 0.00 83 1028.9
20260509200550 57 87 0.0 0.0 0.00 0.01 0.00 83 1028.9
20260509200052 57 87 0.0 0.0 0.00 0.01 0.00 83 1028.8
20260509195547 57 143 0.0 0.0 0.00 0.01 0.00 83 1028.8
20260509195040 58 143 0.0 0.0 0.00 0.01 0.00 83 1028.7
20260509194546 58 143 0.0 0.0 0.00 0.01 0.00 83 1028.7
20260509194051 58 143 0.0 0.0 0.00 0.01 0.00 83 1028.6
20260509193554 58 143 0.0 0.0 0.00 0.01 0.00 83 1028.6
20260509192429 57 139 0.0 0.0 0.00 0.02 0.00 83 1028.4
20260509191927 57 139 0.0 0.0 0.00 0.02 0.00 83 1028.4
20260509191435 57 139 0.0 0.0 0.00 0.02 0.00 83 1028.4
20260509190943 57 139 0.0 0.0 0.00 0.02 0.00 83 1028.3
20260509190445 57 131 0.0 0.0 0.00 0.02 0.00 83 1028.3
20260509185933 57 131 0.0 1.7 0.00 0.02 0.00 83 1028.2
20260509185415 57 166 0.0 0.0 0.00 0.02 0.00 84 1028.2
20260509184902 57 142 0.0 0.9 0.00 0.02 0.00 84 1028.1
20260509184404 57 216 0.0 0.0 0.00 0.02 0.00 84 1028.1
20260509183913 57 138 0.0 2.6 0.00 0.02 0.00 84 1028.1
20260509183406 57 131 0.0 2.6 0.00 0.02 0.00 85 1028.1
20260509182909 57 117 0.0 0.9 0.00 0.02 0.00 85 1028.0
20260509182405 57 133 0.0 0.0 0.00 0.02 0.00 86 1028.0
20260509181910 57 135 0.0 2.6 0.00 0.02 0.00 86 1027.8
20260509181347 57 142 0.0 2.6 0.00 0.02 0.00 86 1027.7
20260509180853 57 201 0.0 1.7 0.00 0.02 0.00 86 1027.8
20260509180343 57 140 0.0 1.7 0.00 0.02 0.00 86 1027.8
20260509175843 57 176 0.0 2.6 0.00 0.02 0.00 86 1027.7
20260509175343 57 215 0.0 2.6 0.00 0.02 0.00 86 1027.7
20260509174827 58 167 0.0 2.6 0.00 0.02 0.00 86 1027.7
20260509174311 58 151 0.0 2.6 0.00 0.03 0.00 86 1027.7
20260509173800 58 211 0.0 2.6 0.00 0.03 0.00 87 1027.7
20260509173303 58 158 0.0 2.6 0.00 0.03 0.00 87 1027.7
20260509172744 58 200 0.0 2.6 0.00 0.03 0.00 87 1027.7
20260509172227 58 187 0.0 2.6 0.00 0.03 0.00 87 1027.8
20260509171736 58 133 0.0 0.0 0.00 0.03 0.00 88 1027.8
20260509171240 57 128 0.0 2.6 0.00 0.03 0.00 89 1027.8
20260509170725 57 139 0.0 0.9 0.00 0.03 0.00 89 1027.8
20260509170216 57 154 0.0 3.5 0.00 0.03 0.00 89 1027.8
20260509165720 57 154 0.0 3.5 0.00 0.03 0.00 89 1027.8
20260509164550 57 132 0.0 1.7 0.00 0.03 0.00 90 1027.9
20260509164043 57 127 0.0 1.7 0.00 0.03 0.00 90 1027.9
20260509163532 57 133 0.0 1.7 0.00 0.03 0.00 90 1027.9
20260509162350 58 176 0.0 2.6 0.00 0.03 0.00 90 1028.0
20260509161838 58 176 0.0 2.6 0.00 0.03 0.00 90 1028.0
20260509160718 58 225 0.0 2.6 0.00 0.03 0.00 91 1028.1
20260509160202 58 145 0.0 0.0 0.00 0.03 0.00 90 1028.1
20260509155656 58 179 0.0 1.7 0.00 0.03 0.00 90 1028.0
20260509154519 57 220 0.0 0.9 0.00 0.03 0.00 89 1028.1
20260509154003 57 220 0.0 0.9 0.00 0.03 0.00 89 1028.1
20260509152817 57 189 0.0 5.2 0.00 0.03 0.00 89 1028.1
20260509152319 57 242 0.9 5.2 0.00 0.03 0.00 88 1028.1
20260509151825 58 212 1.7 5.2 0.00 0.03 0.00 88 1028.1
20260509151326 58 151 1.7 5.2 0.00 0.03 0.00 88 1028.2
20260509150826 58 172 0.9 4.3 0.00 0.03 0.00 88 1028.2
20260509150313 58 236 0.9 5.2 0.00 0.03 0.00 87 1028.1
20260509145806 58 145 1.7 5.2 0.00 0.03 0.00 87 1028.1
20260509145313 58 190 1.7 5.2 0.00 0.03 0.00 87 1028.1
20260509144814 58 192 0.9 5.2 0.00 0.03 0.00 87 1028.1
20260509143641 58 132 0.9 3.5 0.00 0.03 0.00 87 1028.1
20260509143145 59 183 0.0 3.5 0.00 0.03 0.00 87 1028.2
20260509142630 59 152 0.0 3.5 0.00 0.03 0.00 87 1028.2
20260509142139 58 195 0.9 3.5 0.00 0.03 0.00 87 1028.2
20260509141629 58 186 0.0 3.5 0.00 0.03 0.00 88 1028.2
20260509141133 58 200 0.0 3.5 0.00 0.03 0.00 88 1028.1
20260509135409 58 183 0.0 2.6 0.00 0.03 0.03 89 1028.1
20260509134244 58 129 0.0 2.6 0.00 0.03 0.03 89 1028.1
20260509133753 58 191 0.0 2.6 0.00 0.03 0.03 88 1028.0
20260509133253 58 125 0.0 1.7 0.00 0.03 0.03 89 1028.1
20260509132739 58 187 0.0 0.0 0.00 0.03 0.03 88 1028.1
20260509132230 58 225 0.0 3.5 0.00 0.03 0.03 88 1028.2
20260509131722 58 210 0.9 3.5 0.00 0.03 0.03 88 1028.2
20260509131220 58 195 0.0 3.5 0.00 0.03 0.03 88 1028.2
20260509130719 58 165 0.0 4.3 0.00 0.03 0.03 88 1028.2
20260509130225 58 165 0.0 4.3 0.00 0.03 0.03 88 1028.2
20260509125732 59 205 0.0 4.3 0.00 0.03 0.03 88 1028.2
20260509125216 59 132 0.0 4.3 0.00 0.03 0.03 88 1028.2
20260509124723 59 246 0.0 2.6 0.00 0.03 0.03 88 1028.2
20260509124204 58 188 0.0 2.6 0.00 0.03 0.03 88 1028.2
20260509123705 58 191 0.0 1.7 0.00 0.03 0.03 88 1028.2
20260509122535 58 143 0.0 0.0 0.00 0.03 0.03 87 1028.2
20260509122031 58 143 0.9 0.0 0.00 0.03 0.03 87 1028.2
20260509121534 59 174 0.9 4.3 0.00 0.03 0.03 87 1028.2
20260509121021 59 143 0.0 4.3 0.00 0.03 0.03 87 1028.2
20260509120524 59 126 0.0 4.3 0.00 0.03 0.03 87 1028.3
20260509120010 59 220 0.0 4.3 0.00 0.03 0.03 86 1028.3
20260509115450 59 248 0.0 4.3 0.00 0.03 0.03 87 1028.2
20260509114955 59 129 0.0 0.9 0.00 0.03 0.03 86 1028.2
20260509114450 59 342 0.0 0.0 0.00 0.03 0.03 86 1028.1
20260509113959 59 149 0.0 0.0 0.00 0.03 0.03 86 1028.1
20260509113441 59 186 0.0 4.3 0.00 0.03 0.03 86 1028.0
20260509112943 59 191 0.0 3.5 0.00 0.03 0.03 86 1027.9
20260509112425 59 191 0.0 3.5 0.00 0.03 0.03 86 1027.9
20260509111928 59 191 0.0 3.5 0.00 0.03 0.03 86 1028.0
20260509111424 59 144 0.0 3.5 0.00 0.03 0.03 86 1027.9
20260509110925 59 132 0.0 3.5 0.00 0.03 0.03 86 1027.9
20260509110406 59 170 0.0 2.6 0.00 0.03 0.03 86 1027.9
20260509105859 59 163 0.0 1.7 0.00 0.03 0.03 86 1027.8
20260509105359 59 156 0.0 0.0 0.00 0.03 0.03 86 1027.8
20260509103900 59 168 0.0 1.7 0.00 0.03 0.03 87 1027.8
20260509103359 58 185 0.0 0.0 0.00 0.03 0.03 87 1027.7
20260509102856 58 175 0.0 0.0 0.00 0.03 0.03 87 1027.7
20260509102338 58 175 0.0 0.0 0.00 0.03 0.03 87 1027.7
20260509101828 58 175 0.0 0.0 0.00 0.03 0.03 87 1027.7
20260509101333 58 175 0.0 0.0 0.00 0.03 0.03 87 1027.7
20260509100816 58 175 0.0 0.0 0.00 0.03 0.03 87 1027.7
20260509100321 58 151 0.0 0.0 0.00 0.03 0.03 87 1027.8
20260509095808 58 141 0.0 0.0 0.00 0.03 0.03 87 1027.7
20260509095314 58 147 0.0 3.5 0.00 0.03 0.03 87 1027.7
20260509094818 58 153 0.0 3.5 0.00 0.03 0.03 87 1027.7
20260509094310 58 193 0.0 2.6 0.00 0.03 0.03 88 1027.6
20260509093757 58 186 0.0 2.6 0.00 0.03 0.03 88 1027.6
20260509093306 58 127 0.0 2.6 0.00 0.03 0.03 88 1027.6
20260509092755 57 192 0.0 2.6 0.00 0.03 0.03 88 1027.6
20260509092238 57 199 0.0 1.7 0.00 0.03 0.03 89 1027.6
20260509091742 57 253 0.0 1.7 0.00 0.03 0.03 88 1027.6
20260509091241 57 184 0.0 1.7 0.00 0.03 0.03 89 1027.6
20260509090733 57 204 0.0 1.7 0.00 0.03 0.03 89 1027.5
20260509090242 57 132 0.0 0.0 0.00 0.03 0.03 88 1027.5
20260509085749 57 133 0.0 0.0 0.00 0.03 0.03 88 1027.4
20260509085257 57 111 0.0 1.7 0.00 0.03 0.03 88 1027.4
20260509084803 57 161 0.0 0.9 0.00 0.03 0.03 88 1027.3
20260509084257 57 163 0.0 0.9 0.00 0.03 0.03 88 1027.3
20260509083740 58 176 0.0 2.6 0.00 0.03 0.03 88 1027.3
20260509083235 58 145 0.0 2.6 0.00 0.03 0.03 88 1027.2
20260509082728 58 145 0.0 2.6 0.00 0.03 0.03 88 1027.2
20260509082232 58 134 0.0 2.6 0.00 0.03 0.03 88 1027.1
20260509081717 58 162 0.0 2.6 0.00 0.03 0.03 88 1027.2
20260509081225 58 158 0.0 2.6 0.00 0.03 0.03 88 1027.1
20260509080729 58 193 0.0 2.6 0.00 0.03 0.03 88 1027.1
20260509075557 58 146 0.0 2.6 0.00 0.03 0.03 87 1026.9
20260509074429 58 163 0.0 2.6 0.00 0.03 0.03 86 1026.7
20260509073923 59 185 0.0 2.6 0.00 0.03 0.03 86 1026.7
20260509073421 59 177 0.0 1.7 0.00 0.03 0.03 86 1026.6
20260509072904 59 129 0.0 2.6 0.00 0.03 0.03 86 1026.6
20260509072344 59 168 0.0 2.6 0.00 0.03 0.03 86 1026.5
20260509070530 60 174 0.9 5.2 0.00 0.03 0.03 85 1026.5
20260509070027 60 225 1.7 5.2 0.00 0.03 0.03 85 1026.4
20260509065531 60 172 1.7 5.2 0.00 0.03 0.03 84 1026.4
20260509064401 60 166 1.7 6.1 0.00 0.03 0.03 83 1026.4
20260509063902 60 130 1.7 6.1 0.00 0.03 0.03 83 1026.4
20260509063357 60 141 1.7 6.1 0.00 0.03 0.03 83 1026.3
20260509062234 61 134 1.7 5.2 0.00 0.03 0.03 83 1026.3
20260509061729 61 149 1.7 4.3 0.00 0.03 0.03 83 1026.3
20260509060606 61 184 0.9 4.3 0.00 0.03 0.03 83 1026.2
20260509055432 62 141 0.0 2.6 0.00 0.03 0.03 83 1026.2
20260509053631 62 133 0.0 3.5 0.00 0.03 0.03 84 1026.0
20260509053137 62 141 0.0 3.5 0.00 0.03 0.03 84 1026.1
20260509052623 62 181 0.9 3.5 0.00 0.03 0.03 83 1026.1
20260509052130 62 219 0.0 2.6 0.00 0.03 0.03 83 1026.1
20260509051002 63 137 0.0 0.9 0.00 0.03 0.03 85 1026.1
20260509050448 62 143 0.0 0.0 0.00 0.03 0.03 86 1026.0
20260509045947 62 143 0.0 0.0 0.00 0.03 0.03 86 1026.1
20260509045450 62 143 0.0 0.0 0.00 0.03 0.03 87 1026.2
20260509044933 61 143 0.0 2.6 0.00 0.03 0.03 87 1026.2
20260509044415 61 198 0.0 2.6 0.00 0.03 0.03 87 1026.3
20260509043919 60 191 0.0 1.7 0.00 0.03 0.03 88 1026.3
20260509043425 60 166 0.0 0.9 0.00 0.03 0.03 88 1026.3
20260509041553 60 145 0.9 5.2 0.00 0.03 0.03 89 1026.3
20260509041056 60 164 0.0 5.2 0.00 0.03 0.03 89 1026.3
20260509040549 60 131 0.9 5.2 0.00 0.03 0.03 89 1026.3
20260509040047 60 217 0.9 5.2 0.00 0.03 0.03 89 1026.3
20260509035546 61 154 0.0 3.5 0.00 0.03 0.03 89 1026.3
20260509035039 61 191 0.0 1.7 0.00 0.03 0.03 90 1026.3
20260509034547 61 267 0.0 2.6 0.00 0.03 0.03 91 1026.3
20260509034056 60 268 0.0 2.6 0.00 0.03 0.03 91 1026.3
20260509033539 60 257 0.0 2.6 0.00 0.03 0.03 91 1026.3
20260509033033 60 279 0.0 2.6 0.00 0.03 0.03 90 1026.4
20260509032518 60 48 0.0 1.7 0.00 0.03 0.03 91 1026.4
20260509032027 60 280 0.0 2.6 0.00 0.03 0.03 91 1026.4
20260509031533 60 274 0.0 2.6 0.00 0.03 0.03 93 1026.5
20260509031026 60 272 0.0 3.5 0.00 0.03 0.03 92 1026.6
20260509030530 59 280 0.0 3.5 0.00 0.03 0.03 92 1026.7
20260509030013 59 266 0.0 3.5 0.00 0.03 0.03 92 1026.7
20260509023537 59 273 0.0 2.6 0.00 0.03 0.03 92 1026.9
20260509023020 59 266 0.0 2.6 0.00 0.03 0.03 92 1027.0
20260509022512 59 277 0.0 1.7 0.00 0.03 0.03 92 1027.0